TimeEDT,TemperatureF,Dew PointF,Humidity,Sea Level PressureIn,VisibilityMPH,Wind Direction,Wind SpeedMPH,Gust SpeedMPH,PrecipitationIn,Events,Conditions,WindDirDegrees,DateUTC
12:52 AM,66.9,61.0,81,30.02,10.0,South,6.9,-,N/A,,Overcast,190,2012-10-15 04:52:00
1:52 AM,66.9,62.1,84,29.99,10.0,SSW,6.9,-,N/A,,Overcast,200,2012-10-15 05:52:00
2:08 AM,66.2,62.6,88,30.00,10.0,SSW,9.2,-,N/A,,Overcast,200,2012-10-15 06:08:00
2:52 AM,66.9,63.0,87,29.98,10.0,South,8.1,-,N/A,,Overcast,190,2012-10-15 06:52:00
3:52 AM,66.0,63.0,90,29.95,10.0,South,8.1,-,N/A,,Overcast,180,2012-10-15 07:52:00
4:52 AM,64.9,63.0,93,29.92,10.0,South,10.4,-,N/A,,Overcast,190,2012-10-15 08:52:00
5:52 AM,64.9,62.1,90,29.91,10.0,South,9.2,-,N/A,,Overcast,190,2012-10-15 09:52:00
6:48 AM,64.4,62.6,94,29.92,10.0,South,6.9,-,N/A,,Overcast,190,2012-10-15 10:48:00
6:52 AM,64.9,62.1,90,29.91,10.0,South,6.9,-,N/A,,Overcast,190,2012-10-15 10:52:00
7:48 AM,66.2,62.6,88,29.94,10.0,SSW,8.1,-,N/A,,Overcast,200,2012-10-15 11:48:00
7:52 AM,66.2,62.6,88,29.94,10.0,SSW,8.1,-,N/A,,Overcast,200,2012-10-15 11:52:00
8:37 AM,64.4,62.6,94,29.92,10.0,SSW,9.2,-,0.01,Rain,Light Rain,210,2012-10-15 12:37:00
8:52 AM,66.0,62.1,87,29.91,10.0,SSW,8.1,-,0.01,Rain,Light Rain,200,2012-10-15 12:52:00
9:19 AM,66.2,62.6,88,29.93,10.0,SSW,10.4,-,0.00,Rain,Light Rain,200,2012-10-15 13:19:00
9:39 AM,64.4,62.6,94,29.93,3.0,SSW,10.4,20.7,N/A,Rain-Thunderstorm,Heavy Thunderstorms and Rain,210,2012-10-15 13:39:00
9:52 AM,64.9,63.0,93,29.91,4.0,SSW,9.2,-,0.12,Rain-Thunderstorm,Heavy Thunderstorms and Rain,210,2012-10-15 13:52:00
10:19 AM,64.4,62.6,94,29.92,4.0,SSW,6.9,-,0.01,,Overcast,210,2012-10-15 14:19:00
10:52 AM,66.0,64.9,96,29.88,4.0,SSW,6.9,-,0.01,Rain,Light Rain,200,2012-10-15 14:52:00
10:59 AM,66.2,64.4,94,29.90,10.0,SSW,6.9,-,N/A,,Overcast,200,2012-10-15 14:59:00
11:52 AM,66.9,64.9,93,29.87,10.0,SW,5.8,-,N/A,,Overcast,230,2012-10-15 15:52:00
12:52 PM,69.1,64.9,87,29.83,10.0,WSW,9.2,-,N/A,,Overcast,240,2012-10-15 16:52:00
1:52 PM,71.6,64.4,78,29.82,10.0,WSW,8.1,-,N/A,,Mostly Cloudy,240,2012-10-15 17:52:00
2:52 PM,75.9,64.9,69,29.76,10.0,SSW,8.1,16.1,N/A,,Mostly Cloudy,210,2012-10-15 18:52:00
3:52 PM,77.0,63.0,62,29.75,10.0,Variable,3.5,-,N/A,,Mostly Cloudy,0,2012-10-15 19:52:00
4:52 PM,75.9,60.1,58,29.75,10.0,West,6.9,-,0.00,,Scattered Clouds,260,2012-10-15 20:52:00
5:52 PM,73.0,46.9,39,29.77,10.0,NW,11.5,21.9,N/A,,Partly Cloudy,320,2012-10-15 21:52:00
6:52 PM,66.9,46.0,47,29.80,10.0,NNW,6.9,-,N/A,,Partly Cloudy,330,2012-10-15 22:52:00
7:52 PM,63.0,45.0,52,29.81,10.0,NW,5.8,-,N/A,,Clear,320,2012-10-15 23:52:00
8:52 PM,62.1,43.0,50,29.85,10.0,NW,6.9,-,N/A,,Clear,320,2012-10-16 00:52:00
9:52 PM,59.0,44.1,58,29.86,10.0,NW,4.6,-,N/A,,Clear,310,2012-10-16 01:52:00
10:52 PM,55.0,44.1,67,29.88,10.0,Calm,Calm,-,N/A,,Clear,0,2012-10-16 02:52:00
11:52 PM,53.6,44.6,72,29.90,10.0,NNW,6.9,-,N/A,,Clear,330,2012-10-16 03:52:00